[[{"header":{"parameterUnit":"m.s-1","parameterCategory":1,"la1":30.2991,"la2":30.254,"lo1":-89.0895,"lo2":-89.0444,"dy":0.0017,"dx":0.0017,"nx":28,"ny":28,"refTime":"2023-09-11T21:00:00:Z","depth":0,"parameterNumber":2,"parameterNumberName":"U-component_of_WINDS"},"data":[0,0,0,0,0,0,0,0,0,0,0,0,0,0,0,0,0,0,0,0,0,0,0,0,0,0,0,0,0,0,0,0,0,0,0,0,0,0,0,0,0,0,0,0,0,0,0,0,0,0,0,0,0,0,0,0,0,0,-1.4081,-1.408,0,-1.3984,-1.3983,-1.3981,-1.3944,-1.3945,-1.3945,-1.3945,-1.3843,-1.384,-1.3837,0,0,0,0,0,0,0,0,0,0,0,0,0,-1.4232,-1.4229,-1.4081,-1.408,-1.4078,-1.3984,-1.3983,-1.3981,-1.3944,-1.3945,-1.3945,-1.3945,-1.3844,-1.384,-1.3836,0,0,0,0,0,0,0,0,0,0,0,0,0,-1.4154,-1.4229,-1.4081,-1.4049,-1.4045,-1.3984,-1.3982,-1.3981,-1.3944,-1.3945,-1.3945,-1.3945,-1.3845,-1.384,-1.3836,-1.3799,0,0,-1.3822,-1.382,0,0,0,0,0,0,0,0,-1.4158,-1.4148,-1.4055,-1.4051,-1.4046,-1.3977,-1.3998,-1.392,-1.3944,-1.3982,-1.3945,-1.3946,-1.3887,-1.3879,-1.3859,-1.3795,-1.379,-1.3822,-1.3819,-1.3817,-1.3816,0,0,0,0,0,0,0,-1.4164,-1.4152,-1.4042,-1.4053,-1.4048,-1.4038,-1.4028,-1.3983,-1.3933,-1.3979,-1.3976,-1.3965,-1.3884,-1.3864,-1.3857,-1.3789,-1.3822,-1.3818,-1.3815,-1.3813,-1.369,-1.3689,0,0,0,0,0,0,-1.4175,-1.4157,-1.4045,-1.4039,-1.4105,-1.4035,-1.4023,-1.3998,-1.3933,-1.3924,-1.3965,-1.3964,-1.3871,-1.3862,-1.3853,-1.3806,-1.3817,-1.3813,-1.381,-1.369,-1.369,-1.3689,0,0,0,0,0,0,-1.4178,-1.4165,-1.4049,-1.4097,-1.4082,-1.4032,-1.4005,-1.3996,-1.3976,-1.3923,-1.3914,-1.3953,-1.3871,-1.3859,-1.3813,-1.3802,-1.3811,-1.3807,-1.3691,-1.369,-1.3689,-1.3712,0,0,0,0,0,0,-1.4183,-1.4167,-1.4153,-1.4097,-1.4079,-1.4012,-1.4004,-1.3994,-1.3968,-1.3966,-1.3909,-1.39,-1.3871,-1.382,-1.3809,-1.3796,-1.3803,-1.3692,-1.3691,-1.369,-1.3712,-1.3712,-1.3712,0,0,0,0,0,-1.4188,-1.4162,-1.4152,-1.4139,-1.4061,-1.4011,-1.4001,-1.3968,-1.3968,-1.3953,-1.3919,-1.3902,-1.3806,-1.3816,-1.3803,-1.3788,-1.3692,-1.3691,-1.369,-1.3712,-1.3712,-1.3712,0,0,0,0,0,0,-1.4216,-1.4154,-1.4142,-1.4098,-1.406,-1.4005,-1.3985,-1.3969,-1.393,-1.3929,-1.3889,-1.3877,-1.3834,-1.3807,-1.3819,-1.375,-1.3748,-1.3744,-1.3769,-1.3769,-1.3769,-1.3775,-1.38,0,0,0,0,0,-1.4217,-1.4183,-1.413,-1.4096,-1.4078,-1.4035,-1.4012,-1.399,-1.3949,-1.3933,-1.3896,-1.3856,-1.3817,-1.3791,-1.3752,-1.3709,-1.3695,-1.3692,-1.3692,-1.3692,-1.3689,-1.3664,-1.3662,-1.3685,-1.3685,-1.3685,0,0,-1.4218,-1.418,-1.4161,-1.41,-1.4069,-1.4033,-1.4022,-1.3985,-1.3958,-1.3927,-1.3881,-1.3853,-1.3806,-1.3761,-1.374,-1.3737,-1.368,-1.3691,-1.3691,-1.3687,-1.3662,-1.366,-1.3658,-1.3684,-1.3684,-1.3684,0,0,-1.4202,-1.4171,-1.4139,-1.4108,-1.4061,-1.4033,-1.4025,-1.3973,-1.3953,-1.3907,-1.3884,-1.3851,-1.3784,-1.3752,-1.3727,-1.3701,-1.3684,-1.3689,-1.3689,-1.3665,-1.3663,-1.3661,-1.3651,-1.3648,-1.3686,-1.3687,-1.3687,0,-1.421,-1.4156,-1.4124,-1.4088,-1.4062,-1.4035,-1.4002,-1.3973,-1.3915,-1.3898,-1.3896,-1.3812,-1.3779,-1.3726,-1.372,-1.3701,-1.3691,-1.3695,-1.3666,-1.3664,-1.3662,-1.3652,-1.3648,-1.3687,-1.3687,-1.3687,-1.3687,0,-1.4167,-1.4131,-1.411,-1.4056,-1.4028,-1.3994,-1.3957,-1.3932,-1.3913,-1.3886,-1.384,-1.3799,-1.3751,-1.3737,-1.3718,-1.3682,-1.3682,-1.3674,-1.3671,-1.3661,-1.3651,-1.3647,-1.3689,-1.3688,-1.3688,-1.3688,0,0,-1.4164,-1.4094,-1.4087,-1.4063,-1.401,-1.398,-1.3945,-1.39,-1.388,-1.3841,-1.381,-1.3755,-1.3748,-1.372,-1.3697,-1.3676,-1.3658,-1.367,-1.3669,-1.3669,-1.3616,-1.3621,-1.3618,-1.3648,-1.3647,-1.3646,-1.362,0,-1.414,-1.4077,-1.4048,-1.3997,-1.3962,-1.3937,-1.3906,-1.387,-1.3844,-1.3811,-1.3781,-1.3743,-1.3736,-1.3719,-1.3698,-1.3665,-1.3647,-1.3667,-1.3617,-1.3616,-1.3629,-1.3612,-1.3618,-1.3595,-1.3616,-1.3615,-1.3614,0,-1.4103,-1.4066,-1.4013,-1.3965,-1.3949,-1.3922,-1.3879,-1.3848,-1.3807,-1.3789,-1.3758,-1.3737,-1.3699,-1.37,-1.3647,-1.3661,-1.3639,-1.3621,-1.3619,-1.3612,-1.3613,-1.3604,-1.3586,-1.3583,-1.3608,-1.3609,-1.3609,0,-1.4105,-1.4042,-1.4002,-1.3982,-1.3925,-1.3907,-1.3882,-1.3842,-1.3817,-1.3779,-1.3762,-1.372,-1.3697,-1.3665,-1.3632,-1.3636,-1.3582,-1.3581,-1.3566,-1.3567,-1.3554,-1.3555,-1.3532,-1.3543,-1.3543,-1.3543,-1.3543,0,-1.4081,-1.4049,-1.4002,-1.3977,-1.3941,-1.3908,-1.3872,-1.3846,-1.381,-1.378,-1.3755,-1.3727,-1.3687,-1.3653,-1.3628,-1.3588,-1.3577,-1.3561,-1.3555,-1.3563,-1.3565,-1.3547,-1.3547,-1.3542,-1.3542,-1.3542,-1.3542,0,-1.4076,-1.4043,-1.3998,-1.3949,-1.3936,-1.3911,-1.3868,-1.3843,-1.3817,-1.3778,-1.3767,-1.3725,-1.3685,-1.365,-1.3596,-1.3579,-1.3537,-1.353,-1.3551,-1.3547,-1.3534,-1.3536,-1.3497,-1.3491,-1.3508,-1.3508,-1.3508,0,-1.4062,-1.4037,-1.3985,-1.3964,-1.394,-1.3905,-1.388,-1.3847,-1.3822,-1.3774,-1.3754,-1.3713,-1.3677,-1.3614,-1.3578,-1.3537,-1.3527,-1.3517,-1.3521,-1.353,-1.3526,-1.3527,-1.3525,-1.3516,-1.3516,-1.3516,-1.3516,0,-1.404,-1.4025,-1.3991,-1.395,-1.3922,-1.3888,-1.3854,-1.3837,-1.3798,-1.3771,-1.373,-1.3703,-1.3649,-1.3607,-1.3563,-1.3537,-1.352,-1.3516,-1.351,-1.3517,-1.353,-1.3522,-1.355,-1.3516,-1.3516,-1.3516,-1.3516,-1.3516,-1.4029,-1.4005,-1.3966,-1.3928,-1.39,-1.3869,-1.3843,-1.3814,-1.3779,-1.3733,-1.3717,-1.3674,-1.3635,-1.3574,-1.3548,-1.3515,-1.3512,-1.3504,-1.3501,-1.3499,-1.35,-1.3537,-1.3506,-1.3506,-1.3506,-1.3506,-1.3506,0,-1.4005,-1.3979,-1.3944,-1.3898,-1.3868,-1.3857,-1.3819,-1.3795,-1.3758,-1.3724,-1.369,-1.3643,-1.3603,-1.3566,-1.3524,-1.3504,-1.3495,-1.3494,-1.3494,-1.3489,-1.3505,-1.3514,-1.3502,-1.3502,-1.3502,-1.3502,-1.3502,-1.3502,-1.3988,-1.3948,-1.393,-1.3876,-1.385,-1.3809,-1.3788,-1.376,-1.3732,-1.3681,-1.3648,-1.3624,-1.3588,-1.3544,-1.3507,-1.3497,-1.3482,-1.3483,-1.3471,-1.3487,-1.3487,-1.3488,-1.3496,-1.348,-1.348,-1.3456,-1.3456,-1.3456]},{"header":{"parameterUnit":"m.s-1","parameterCategory":1,"la1":30.2991,"la2":30.254,"lo1":-89.0895,"lo2":-89.0444,"dy":0.0017,"dx":0.0017,"nx":28,"ny":28,"refTime":"2023-09-11T21:00:00:Z","depth":0,"parameterNumber":3,"parameterNumberName":"V-component_of_WINDS"},"data":[0,0,0,0,0,0,0,0,0,0,0,0,0,0,0,0,0,0,0,0,0,0,0,0,0,0,0,0,0,0,0,0,0,0,0,0,0,0,0,0,0,0,0,0,0,0,0,0,0,0,0,0,0,0,0,0,0,0,3.0051,3.0053,0,3.0238,3.024,3.0242,3.0377,3.0378,3.0379,3.038,3.0563,3.0567,3.0571,0,0,0,0,0,0,0,0,0,0,0,0,0,2.9803,2.9807,3.0051,3.0053,3.0056,3.0238,3.024,3.0243,3.0377,3.0378,3.038,3.0381,3.0562,3.0567,3.0571,0,0,0,0,0,0,0,0,0,0,0,0,0,2.9942,2.9808,3.005,3.0145,3.0155,3.0237,3.024,3.0243,3.0376,3.0378,3.038,3.0382,3.0561,3.0566,3.0572,3.0573,0,0,3.0589,3.0592,0,0,0,0,0,0,0,0,2.9934,2.9951,3.0128,3.0138,3.015,3.0286,3.022,3.0353,3.0376,3.0292,3.038,3.0382,3.0469,3.0482,3.0514,3.0581,3.0589,3.059,3.0593,3.0596,3.0597,0,0,0,0,0,0,0,2.9924,2.9943,3.0125,3.0131,3.0144,3.0175,3.0197,3.0246,3.0368,3.03,3.031,3.0331,3.0475,3.0508,3.0519,3.0592,3.059,3.0595,3.0598,3.06,3.067,3.0668,0,0,0,0,0,0,2.9901,2.9934,3.0119,3.013,3.0044,3.0178,3.0202,3.024,3.0368,3.039,3.0329,3.0336,3.0497,3.0512,3.0526,3.0535,3.0596,3.0601,3.0604,3.0671,3.0669,3.0667,0,0,0,0,0,0,2.9895,2.9916,3.0111,3.0035,3.0063,3.0181,3.0222,3.0243,3.0276,3.0391,3.0412,3.034,3.0499,3.0518,3.0561,3.0543,3.0604,3.0609,3.0673,3.0671,3.0668,3.0554,0,0,0,0,0,0,2.9887,2.9913,2.9916,3.0035,3.0066,3.0145,3.0221,3.0246,3.0286,3.0298,3.0407,3.0426,3.0502,3.0551,3.0566,3.0552,3.0613,3.0675,3.0672,3.0669,3.0559,3.0548,3.0538,0,0,0,0,0,2.9878,2.9874,2.9916,2.9937,3.0073,3.0143,3.0161,3.0251,3.0284,3.0288,3.0361,3.0423,3.0543,3.0555,3.0573,3.056,3.0676,3.0673,3.0669,3.0564,3.055,3.0538,0,0,0,0,0,0,2.9748,2.9892,2.9939,2.9974,3.0046,3.0166,3.0173,3.0232,3.0294,3.0301,3.0407,3.0431,3.0462,3.0516,3.0526,3.0568,3.0617,3.0617,3.0531,3.0519,3.0508,3.0494,3.0618,0,0,0,0,0,2.9724,2.9772,2.9894,2.9913,2.9947,3.0053,3.0087,3.015,3.0228,3.0258,3.0335,3.0405,3.0459,3.0492,3.0548,3.0568,3.0593,3.0568,3.0557,3.0548,3.0546,3.056,3.0551,3.0656,3.0656,3.0656,0,0,2.9673,2.9758,2.9781,2.9889,2.9952,2.9997,3.0078,3.0122,3.0155,3.0264,3.031,3.0368,3.0454,3.0485,3.0503,3.0531,3.0523,3.0543,3.0535,3.0538,3.0556,3.0546,3.0537,3.0653,3.0654,3.0654,0,0,2.9605,2.9674,2.9698,2.976,2.9856,2.9927,2.9932,3.0044,3.0088,3.0137,3.0219,3.0259,3.035,3.0408,3.0449,3.0403,3.0462,3.0418,3.036,3.0373,3.0365,3.0358,3.0341,3.0333,3.0416,3.0416,3.0416,0,2.9529,2.9603,2.9702,2.9742,2.9786,2.989,2.9914,2.9968,3.0075,3.0102,3.0133,3.025,3.0314,3.0361,3.035,3.038,3.0388,3.0406,3.0358,3.0353,3.0348,3.0332,3.0326,3.041,3.0411,3.0411,3.0412,0,2.9505,2.9555,2.9562,2.9667,2.9712,2.9743,2.9845,2.9878,2.9937,3.0004,3.0051,3.0133,3.0208,3.0224,3.028,3.0278,3.0292,3.0339,3.0391,3.033,3.0317,3.0312,3.0401,3.0404,3.0405,3.0407,0,0,2.9359,2.9519,2.952,2.9569,2.9682,2.9721,2.9756,2.9832,2.9858,2.9929,2.996,3.0035,3.0079,3.0126,3.019,3.0201,3.0159,3.0247,3.0251,3.0227,3.0161,3.0124,3.0116,3.0199,3.0199,3.0198,3.0153,0,2.9307,2.9379,2.947,2.951,2.9556,2.9655,2.9686,2.9757,2.9821,2.9867,2.9937,2.9988,3.0044,3.0072,3.0088,3.0161,3.0147,3.0166,3.0227,3.0228,3.0202,3.011,3.0071,3.0025,3.0149,3.0148,3.0148,0,2.9256,2.9324,2.937,2.948,2.9503,2.9529,2.9606,2.965,2.9732,2.9778,2.983,2.9901,2.9941,2.9988,3.0044,3.0054,3.0085,3.0124,3.0125,3.0133,3.0183,3.0114,3.0012,3.0005,3.0141,3.0142,3.0142,0,2.9143,2.9247,2.9288,2.9326,2.9456,2.9472,2.9526,2.9611,2.9651,2.9717,2.9744,2.9812,2.9849,2.99,2.9986,3.0013,3.0032,3.0087,3.0069,3.0067,3.0068,3.0066,2.9968,3.0088,3.0089,3.0089,3.0089,0,2.9075,2.9099,2.9239,2.9264,2.9293,2.9396,2.9421,2.9484,2.9558,2.9596,2.9685,2.9717,2.983,2.9874,2.9942,2.9977,2.9993,3.003,3.0047,3.0021,3.0017,3.0042,3.0047,3.0087,3.0087,3.0088,3.0088,0,2.8954,2.9049,2.91,2.922,2.925,2.9266,2.9367,2.9394,2.9464,2.951,2.9526,2.9634,2.9692,2.9784,2.9867,2.9912,2.9936,2.9965,2.9908,2.9919,2.9896,2.9897,2.981,2.9804,2.9928,2.9926,2.9925,0,2.8904,2.8925,2.9048,2.9081,2.9133,2.9184,2.9226,2.9328,2.9367,2.9464,2.9478,2.9543,2.9601,2.9688,2.9773,2.9837,2.9868,2.9834,2.9878,2.9852,2.9867,2.9864,2.9867,2.9822,2.9821,2.9819,2.9818,0,2.8805,2.8851,2.891,2.8985,2.9033,2.9096,2.9163,2.9184,2.9301,2.934,2.9402,2.9447,2.9534,2.9597,2.9674,2.9727,2.9791,2.9804,2.9803,2.9776,2.9742,2.976,2.9879,2.9805,2.9806,2.9807,2.9808,2.9808,2.8717,2.8741,2.8831,2.8893,2.8955,2.9016,2.9048,2.9123,2.9177,2.9258,2.9314,2.9372,2.9454,2.9564,2.9614,2.9659,2.9687,2.9686,2.9686,2.9684,2.9674,2.9736,2.9673,2.9674,2.9674,2.9675,2.9675,0,2.8622,2.8686,2.8742,2.8835,2.8883,2.8943,2.9021,2.9056,2.9107,2.918,2.9236,2.9306,2.9368,2.9458,2.9526,2.9545,2.9576,2.956,2.9559,2.957,2.9645,2.9639,2.9533,2.9533,2.9534,2.9534,2.9534,2.9534,2.8578,2.8621,2.8678,2.8752,2.8815,2.8875,2.8914,2.897,2.9029,2.9105,2.9158,2.9218,2.9297,2.9372,2.9431,2.9455,2.9476,2.945,2.9483,2.9551,2.9564,2.9577,2.9571,2.9454,2.9453,2.9404,2.9404,2.9403]}]]